Belmar-Farmingdale, NJ

10:01 PM EST on December 13, 2019 (GMT -0500)
Allaire

Weather History for KBLM - October, 2019

Change the Weather History Date:

Wednesday, October 30, 2019

  Actual Average Record
Temperature  
Mean Temperature 60 °F -  
Max Temperature 63 °F 57 °F 78 °F (2016)
Min Temperature 59 °F 41 °F 30 °F (2008)
Degree Days  
Heating Degree Days 4    
Growing Degree Days 10 (Base 50)    
Moisture  
Dew Point 61 °F    
Average Humidity 99    
Maximum Humidity 100    
Minimum Humidity 94    
Precipitation  
Precipitation 0.06 in - - ()
Sea Level Pressure  
Sea Level Pressure 30.22 in    
Wind  
Wind Speed 4 mph ()    
Max Wind Speed 9 mph    
Max Gust Speed -    
Visibility 1.9 miles    
Events Fog , Rain    
Averages and records for this station are not official NWS values.
T = Trace of Precipitation, MM = Missing Value Source: Averaged Metar Reports

Daily Weather History Graph

Daily Weather History Graph

Search for Another Location

Airport or City:

Astronomy

Oct. 30, 2019 Rise Set
Actual Time 7:23 AM EDT 5:56 PM EDT
Civil Twilight 6:55 AM EDT 6:24 PM EDT
Nautical Twilight 6:23 AM EDT 6:56 PM EDT
Astronomical Twilight 5:51 AM EDT 7:27 PM EDT
Moon 10:03 AM EDT (10/30) 8:02 PM EDT (10/30)
Length of Visible Light 11h 29m
Length of Day
10h 33m
Waxing Crescent, 8% of the Moon is Illuminated
Oct 30
Waxing Crescent
Nov 4
First Quarter
Nov 12
Full
Nov 19
Last Quarter
Nov 26
New

Hourly Weather History & Observations

Time (EDT) Temp. Dew Point Humidity Pressure Visibility Wind Dir Wind Speed Gust Speed Precip Events Conditions
12:08 AM 60.8 °F 60.8 °F 100% 30.27 in 0.8 mi North 3.5 mph - N/A   Overcast
12:13 AM 60.8 °F 60.8 °F 100% 30.27 in 0.8 mi North 3.5 mph - N/A   Overcast
12:19 AM 60.8 °F 60.8 °F 100% 30.27 in 1.2 mi North 4.6 mph - 0.00 in Rain Light Rain
12:29 AM 60.8 °F 60.8 °F 100% 30.27 in 2.5 mi North 4.6 mph - 0.00 in Rain Light Rain
1:11 AM 60.8 °F 60.8 °F 100% 30.27 in 5.0 mi Calm Calm - 0.00 in Rain Light Rain
1:56 AM 60.1 °F 60.1 °F 100% 30.27 in 4.0 mi North 4.6 mph - 0.01 in Rain Light Rain
2:56 AM 60.1 °F 60.1 °F 100% 30.27 in 5.0 mi North 3.5 mph - 0.00 in Rain Light Rain
3:27 AM 60.8 °F 60.8 °F 100% 30.26 in 2.5 mi North 3.5 mph - 0.01 in   Overcast
3:41 AM 60.8 °F 60.8 °F 100% 30.26 in 3.0 mi North 5.8 mph - 0.01 in Rain Light Rain
3:56 AM 60.1 °F 60.1 °F 100% 30.26 in 2.0 mi NNE 4.6 mph - 0.01 in   Overcast
4:04 AM 60.8 °F 60.8 °F 100% 30.25 in 1.5 mi NNE 5.8 mph - N/A   Overcast
4:18 AM 60.8 °F 60.8 °F 100% 30.25 in 1.0 mi NNE 5.8 mph - N/A   Overcast
4:41 AM 60.8 °F 59.0 °F 94% 30.26 in 1.2 mi NNE 4.6 mph - 0.00 in Rain Light Rain
4:56 AM 60.1 °F 59.0 °F 96% 30.26 in 2.0 mi NNE 6.9 mph - 0.02 in Rain Light Rain
5:20 AM 60.8 °F 59.0 °F 94% 30.26 in 4.0 mi North 3.5 mph - 0.00 in Rain Light Rain
5:41 AM 60.8 °F 59.0 °F 94% 30.26 in 2.5 mi NNE 4.6 mph - 0.01 in Rain Light Rain
5:56 AM 60.1 °F 59.0 °F 96% 30.26 in 3.0 mi NNE 4.6 mph - 0.01 in   Overcast
6:05 AM 60.8 °F 59.0 °F 94% 30.26 in 1.8 mi NNE 5.8 mph - N/A   Overcast
6:24 AM 59.0 °F 59.0 °F 100% 30.27 in 1.0 mi North 4.6 mph - N/A   Overcast
6:39 AM 59.0 °F 59.0 °F 100% 30.27 in 1.2 mi NNE 4.6 mph - N/A   Overcast
6:48 AM 59.0 °F 59.0 °F 100% 30.27 in 0.8 mi NNE 3.5 mph - N/A   Overcast
6:56 AM 59.0 °F 59.0 °F 100% 30.27 in 0.8 mi North 3.5 mph - N/A   Overcast
7:12 AM 59.0 °F 59.0 °F 100% 30.27 in 1.0 mi NNE 5.8 mph - N/A   Overcast
7:16 AM 59.0 °F 59.0 °F 100% 30.27 in 0.5 mi North 4.6 mph - N/A Fog Fog
7:26 AM 59.0 °F 59.0 °F 100% 30.28 in 0.2 mi North 5.8 mph - N/A Fog Fog
7:40 AM 59.0 °F 59.0 °F 100% 30.28 in 0.5 mi North 5.8 mph - N/A Fog Fog
7:56 AM 60.1 °F 59.0 °F 96% 30.28 in 0.8 mi North 5.8 mph - N/A   Overcast
8:13 AM 60.8 °F 59.0 °F 94% 30.29 in 1.2 mi NNE 4.6 mph - N/A   Overcast
8:25 AM 60.8 °F 59.0 °F 94% 30.28 in 3.0 mi NNE 4.6 mph - N/A   Overcast
8:35 AM 60.8 °F 60.8 °F 100% 30.29 in 1.8 mi NNE 6.9 mph - N/A   Overcast
8:56 AM 60.1 °F 60.1 °F 100% 30.29 in 1.0 mi NNE 5.8 mph - N/A   Overcast
9:09 AM 60.8 °F 60.8 °F 100% 30.29 in 0.5 mi NNE 4.6 mph - N/A Fog Fog
9:19 AM 60.8 °F 60.8 °F 100% 30.28 in 1.2 mi NNE 6.9 mph - N/A   Overcast
9:27 AM 60.8 °F 60.8 °F 100% 30.28 in 0.8 mi NE 5.8 mph - N/A   Overcast
9:56 AM 60.1 °F 60.1 °F 100% 30.27 in 0.2 mi NE 9.2 mph - N/A Fog Fog
10:09 AM 60.8 °F 60.8 °F 100% 30.27 in 0.5 mi NNE 6.9 mph - N/A Fog Fog
10:46 AM 60.8 °F 60.8 °F 100% 30.27 in 0.8 mi ENE 8.1 mph - N/A   Overcast
10:56 AM 61.0 °F 61.0 °F 100% 30.28 in 0.5 mi NNE 6.9 mph - N/A Fog Fog
11:31 AM 62.6 °F 60.8 °F 94% 30.27 in 2.5 mi ENE 6.9 mph - N/A   Overcast
11:38 AM 62.6 °F 62.6 °F 100% 30.27 in 3.0 mi NNE 5.8 mph - N/A   Overcast
11:46 AM 62.6 °F 60.8 °F 94% 30.26 in 1.8 mi NE 9.2 mph - N/A   Overcast
11:56 AM 62.1 °F 61.0 °F 96% 30.27 in 1.5 mi NE 6.9 mph - N/A   Overcast
12:56 PM 62.1 °F 61.0 °F 96% 30.25 in 1.2 mi NNE 5.8 mph - 0.00 in Rain Light Rain
1:13 PM 62.6 °F 60.8 °F 94% 30.23 in 2.5 mi NNE 6.9 mph - 0.00 in Rain Light Rain
1:30 PM 62.6 °F 60.8 °F 94% 30.21 in 1.8 mi NNE 9.2 mph - 0.00 in Rain Light Rain
1:41 PM 62.6 °F 62.6 °F 100% 30.22 in 2.0 mi NNE 8.1 mph - 0.00 in Rain Light Rain
1:56 PM 62.1 °F 62.1 °F 100% 30.21 in 1.8 mi NE 6.9 mph - 0.00 in Rain Light Rain
2:12 PM 62.6 °F 62.6 °F 100% 30.20 in 2.5 mi NE 6.9 mph - N/A   Overcast
2:31 PM 62.6 °F 62.6 °F 100% 30.20 in 1.5 mi NNE 5.8 mph - N/A   Overcast
2:56 PM 62.1 °F 61.0 °F 96% 30.19 in 2.0 mi NE 6.9 mph - 0.00 in   Overcast
3:20 PM 62.6 °F 60.8 °F 94% 30.19 in 4.0 mi NE 8.1 mph - N/A   Overcast
3:49 PM 62.6 °F 62.6 °F 100% 30.18 in 1.5 mi NE 6.9 mph - N/A   Overcast
3:56 PM 62.1 °F 62.1 °F 100% 30.18 in 1.2 mi NNE 6.9 mph - N/A   Overcast
4:25 PM 62.6 °F 62.6 °F 100% 30.17 in 1.5 mi NE 8.1 mph - N/A   Overcast
4:41 PM 62.6 °F 60.8 °F 94% 30.17 in 1.0 mi NE 6.9 mph - 0.00 in Rain Light Rain
4:56 PM 62.1 °F 61.0 °F 96% 30.17 in 1.0 mi NE 5.8 mph - 0.00 in Rain Light Rain
5:11 PM 62.6 °F 60.8 °F 94% 30.17 in 0.8 mi NE 5.8 mph - 0.00 in Rain Light Rain
5:21 PM 62.6 °F 60.8 °F 94% 30.17 in 1.0 mi NE 8.1 mph - 0.00 in Rain Light Rain
5:43 PM 60.8 °F 60.8 °F 100% 30.16 in 1.2 mi ENE 4.6 mph - 0.00 in Rain Light Rain
5:56 PM 61.0 °F 61.0 °F 100% 30.17 in 1.8 mi NE 4.6 mph - 0.00 in Rain Light Rain
6:15 PM 60.8 °F 60.8 °F 100% 30.17 in 3.0 mi NE 4.6 mph - 0.00 in   Overcast
6:25 PM 60.8 °F 60.8 °F 100% 30.17 in 2.5 mi NE 5.8 mph - 0.00 in   Overcast
6:56 PM 61.0 °F 61.0 °F 100% 30.17 in 2.5 mi Calm Calm - 0.00 in   Overcast
7:09 PM 60.8 °F 60.8 °F 100% 30.17 in 1.8 mi Calm Calm - 0.00 in Rain Light Rain
7:24 PM 60.8 °F 60.8 °F 100% 30.17 in 2.5 mi Calm Calm - 0.00 in Rain Light Rain
7:42 PM 60.8 °F 60.8 °F 100% 30.17 in 3.0 mi Calm Calm - 0.00 in Rain Light Rain
7:56 PM 61.0 °F 61.0 °F 100% 30.17 in 7.0 mi SSE 3.5 mph - 0.00 in   Overcast
8:21 PM 60.8 °F 60.8 °F 100% 30.16 in 10.0 mi SSE 3.5 mph - N/A   Scattered Clouds
8:35 PM 60.8 °F 60.8 °F 100% 30.15 in 1.8 mi South 4.6 mph - N/A   Clear
8:45 PM 60.8 °F 60.8 °F 100% 30.15 in 3.0 mi Calm Calm - N/A   Clear
8:56 PM 60.1 °F 60.1 °F 100% 30.15 in 10.0 mi Calm Calm - N/A   Partly Cloudy
9:08 PM 60.8 °F 60.8 °F 100% 30.15 in 1.8 mi Calm Calm - N/A   Scattered Clouds
9:15 PM 60.8 °F 60.8 °F 100% 30.15 in 0.8 mi Calm Calm - N/A   Mist
9:26 PM 60.8 °F 60.8 °F 100% 30.15 in 1.2 mi South 3.5 mph - N/A   Mostly Cloudy
9:38 PM 60.8 °F 60.8 °F 100% 30.15 in 0.8 mi South 3.5 mph - N/A   Overcast
9:54 PM 60.8 °F 60.8 °F 100% 30.15 in 0.8 mi Calm Calm - N/A   Overcast
9:56 PM 60.1 °F 60.1 °F 100% 30.15 in 0.8 mi Calm Calm - N/A   Overcast
10:07 PM 60.8 °F 60.8 °F 100% 30.14 in 0.5 mi Calm Calm - N/A Fog Fog
10:15 PM 60.8 °F 60.8 °F 100% 30.14 in 0.2 mi Calm Calm - N/A Fog Fog
10:29 PM 60.8 °F 60.8 °F 100% 30.14 in 0.5 mi Calm Calm - N/A Fog Fog
10:56 PM 61.0 °F 61.0 °F 100% 30.13 in 0.5 mi Variable 3.5 mph - 0.01 in Fog Fog
11:44 PM 60.8 °F 60.8 °F 100% 30.12 in 0.8 mi Calm Calm - N/A   Overcast
11:56 PM 61.0 °F 61.0 °F 100% 30.12 in 0.8 mi Calm Calm - N/A   Overcast